Regional Weather Roundup
Issued by NWS Midland/Odessa, TX

Skip options and go directly to product.
Home | Oldest Version | Next Version | Current Version | All | Text Only | Save Text | Print | Product List | Glossary On

Skip product version selection by date and time.   
446
ASUS44 KMAF 230402
RWRMAF
MIDLAND AREA WEATHER ROUNDUP
NATIONAL WEATHER SERVICE MIDLAND TX
1100 PM CDT TUE APR 22 2014

...IN SOUTHWEST TEXAS AND SOUTHEAST NEW MEXICO...

CITY           SKY/WX    TMP DP  RH WIND       PRES   REMARKS
ALPINE         CLEAR     71  41  34 SE14G21   30.03S
ANDREWS        FAIR      72  41  33 SE10      29.94R
ARTESIA        CLEAR     70  45  40 S10       29.88R
BIG SPRING     CLEAR     74  37  26 E14       29.96S
CARLSBAD       CLEAR     70  43  37 S9        29.87R
DRYDEN           N/A     81  48  31 SE12      29.90S
FORT STOCKTON  CLEAR     74  44  34 SE14      29.92R
GUAD PASS      PTCLDY    65  42  43 NE28      29.99F
HOBBS          CLEAR     64  43  45 E8        29.94S
MARFA          CLEAR     68  39  34 E18       30.02R
MIDLAND AIRPK  CLEAR     75  40  28 SE13      29.94S
MIDLAND INTL   CLEAR     74  42  31 SE17      29.93S
ODESSA           N/A    N/A N/A N/A MISG      29.93S
PECOS          CLEAR     65  53  63 SE8       29.88R
PRESIDIO       FAIR      82  44  25 NE15G23   29.85R
SEMINOLE       CLEAR     71  39  32 SE12      29.95R
SNYDER         CLEAR     72  41  32 SE10      29.96S
WINK           CLEAR     73  49  42 SE10      29.88S
$$
...OTHER STATIONS IN TEXAS...

CITY           SKY/WX    TMP DP  RH WIND       PRES   REMARKS
ABILENE        CLEAR     66  45  46 SE10      29.96S
AMARILLO       CLEAR     66  39  37 SE16      29.93R
AUSTIN         CLEAR     62  58  86 CALM      29.95R
BROWNSVILLE    CLEAR     70  68  93 SE6       29.95R
CORPUS CHRISTI PTCLDY    73  67  81 SE9       29.94R
DALLAS FTW     CLEAR     72  53  51 E3        29.95S
DEL RIO        CLEAR     81  51  35 SE12      29.88R
EL PASO        CLOUDY    81  34  18 S13G18    29.84R
HOUSTON INT    PTCLDY    67  63  87 CALM      29.94R
LUBBOCK        CLEAR     70  35  27 SE17      29.94R
SAN ANGELO     CLEAR     71  45  39 E9        29.94S
SAN ANTONIO    CLEAR     71  57  61 E5        29.95R
WACO           CLEAR     66  57  72 E5        29.96R
WICHITA FALLS  NOT AVBL
$$
...OTHER LOCATIONS IN NEW MEXICO...

CITY           SKY/WX    TMP DP  RH WIND       PRES   REMARKS
ALAMAGORDO     PTCLDY    75  36  23 SE9       29.85R
ALBUQUERQUE    MOCLDY    71  28  20 S12       29.88R
CANNON AFB     PTCLDY    67  40  37 S14       29.94R
CLOVIS         CLEAR     64  39  39 S14       29.96S
HOLLOMAN AFB   PTCLDY    76  41  28 SE22G29   29.84R
ROSWELL        CLEAR     73  45  36 S14       29.87R
RUIDOSO        PTCLDY    61  32  33 S12       30.06S
SANTA FE       MOCLDY    61  28  28 SE9       29.92R
TRUTH OR CONSE PTCLDY    70  21  15 SW5       29.86R
TUCUMCARI      PTCLDY    72  42  34 SW35G48   29.87R
$$

USA.gov is the U.S. government's official web portal to all federal, state and local government web resources and services.